Simultaneous Nadir Overpasses (SNOs) Predictions

Prediction of SNOs between LANDSAT-8 and METOP-A Satellite Orbit:

Table of predicted SNOs for the next 14.0 days since TLE Epoch: 4/21/2018
Index Date (LANDSAT-8) Time (LANDSAT-8) Lat,Lon (LANDSAT-8) SZA (LANDSAT-8 ) Date (METOP-A) Time (METOP-A) Lat,Lon (METOP-A) SZA (METOP-A ) Distance(km) Time Diff (sec)
1 04/23/2018 08:32:19 81.33, 94.55 71.15 04/23/2018 08:31:52 81.33, 94.67 71.15 2.02 27
2 04/23/2018 09:21:46 -81.32, -97.91 108.88 04/23/2018 09:22:33 -81.33, -97.93 108.86 0.66 47
3 04/26/2018 04:06:33 81.32, 160.90 70.23 04/26/2018 04:06:10 81.33, 161.09 70.24 3.25 23
4 04/26/2018 04:55:59 -81.34, -31.15 109.74 04/26/2018 04:56:50 -81.34, -31.09 109.71 1.10 51
5 04/28/2018 23:40:46 81.32,-132.79 69.34 04/28/2018 23:40:28 81.32,-132.89 69.32 1.63 18
6 04/29/2018 00:30:12 -81.34, 35.18 110.63 04/29/2018 00:31:07 -81.34, 35.34 110.59 2.68 55
7 05/01/2018 19:14:59 81.33, -66.14 68.52 05/01/2018 19:14:45 81.33, -66.10 68.52 0.80 14
8 05/01/2018 20:04:26 -81.33, 101.47 111.50 05/01/2018 20:05:26 -81.33, 101.37 111.48 1.81 60
9 05/04/2018 14:49:13 81.32, 0.08 67.67 05/04/2018 14:49:04 81.32, -0.10 67.65 3.07 9




NCC Satellite Simultaneous Nadir Overpasses (SNOs) Prediction Service
